Location: Powder Track
(41.8531°N, 72.3584°W)
Time: 00:30:46
(UTC+00:00)

Vanguard 1 Rocket - Pass Details

Date: 06 August 2021
Orbit: 650 x 4226 km, 34.3° (Epoch: 19 September)

Event Time Altitude Azimuth Distance (km) Brightness Sun altitude
Rises 10:02:05 0° 194° (SSW) 8,173 11.9 1.5°
Reaches altitude 10° 10:09:40 10° 182° (S) 7,369 11.8 2.8°
Maximum altitude 10:27:30 24° 138° (SE) 6,018 12.0 6.0°
Drops below altitude 10° 10:42:28 10° 94° (E) 6,265 13.4 8.6°
Sets 10:47:54 0° 82° (E) 6,783 14.1 9.6°
